Uncategorized

2000 Ratings: D1 Boys State

The greatest performance in the history of Michigan cross country.

PlaceNameTimeTeamRating
12Dathan Ritzenhein14:10.4Rockford230.5
12Chris Toloff15:05.3Novi212.2
10Tim Moore15:06.1Novi212.0
12Pat Klein15:15.8White Lake Lakeland208.7
12Brian Smith15:20.6Rockford207.1
12Matt Daly15:22.5Detroit Catholic Central206.5
12Joe Swendrowski15:23.4Rockford206.2
12Kyle Fujimoto15:27.1Rockford205.0
12Sean Moore15:30.1Saline204.0
12Blake Terhune15:33.9Traverse City Central202.7
12Jon Wojcik15:35.6Wyandotte Roosevelt202.1
12Ed Davis15:38.5Saline201.2
12Jason Prowant15:45.3Muskegon Reeths-Puffer198.9
Nicholas Kopczyk15:46.0Highland-Milford198.7
10John Krawiec15:46.6Detroit Catholic Central198.5
12Joseph Whitman15:47.1Davison198.3
12Donnie Warner15:47.4Salem198.2
10Matthew French15:47.6Howell198.1
10Dana Irrer15:49.9Okemos197.4
12Adam Frezza15:51.1Lake Orion197.0
9Jeff Draggich15:51.4Sterling Heights196.9
12Mark Avenius15:53.5Novi196.2
11Jake Hammerle15:54.5Woodhaven-Brownstown195.8
12Chris Gumz15:56.4Rochester195.2
12Bryan Kelly15:57.1Roseville195.0
9Kevin Gienapp15:57.4Brighton194.9
Dan Krawiec15:57.9Detroit Catholic Central194.7
12Brendan Robinson15:58.3Grand Ledge194.6
10Lance Vanderberg15:58.9Muskegon Mona Shores194.4
11Ryan Lowry15:59.6Detroit Catholic Central194.1
10Brian Theut16:00.4White Lake Lakeland193.9
12Nate McManus16:02.2Traverse City Central193.3
Richard Swor16:04.0Dearborn192.7
10Kevin Naughton16:04.8Walled Lake Western192.4
10Matt Johnson16:05.7Temperance Bedford192.1
10Adam Roach16:05.8Port Huron192.1
10Nicholas Gillett16:06.2Troy191.9
10Corey Nowitzke16:06.2Monroe191.9
Patrick Miller16:07.0Highland-Milford191.7
10Patrick Dantzer16:07.5Grosse Pointe South191.5
Eric Mink16:09.7Livonia Stevenson190.8
10Evan Reimer16:10.6Holland190.5
10Michael Colt16:11.3Lake Orion190.2
10Greg Haapala16:11.5Detroit U-D Jesuit190.2
12Matthew Fecht16:12.1Warren Mott190.0
12Mark Groenheide16:12.7Portage Northern189.8
9Dustin Voss16:13.6Saline189.5
9Tim Kava16:14.6Novi189.1
12Eric Walle16:14.7Novi189.1
12Phil Astras16:14.8Rockford189.1
10Dan Murray16:15.6Brother Rice188.8
9Chris Beach16:15.8Portage Northern188.7
12Steve Smith16:16.5Brother Rice188.5
12Wayne Vredenburg16:16.7GR_Union188.4
12Jarren Pierson16:17.0Davison188.3
Brian Bilyk16:17.6Northville188.1
12Nate Jalbert16:19.0Macomb L’Anse Creuse North187.7
12Ryan Detlor16:19.1Dearborn Edsel Ford187.6
12Adam Druckenmiller16:19.6Rockford187.5
11Jason Schoener16:20.1Grand Blanc187.3
Nicolas Gatlin16:20.6Swartz Creek187.1
12Matthew Johnson16:20.8Ann Arbor Pioneer187.1
Doug Gibbons16:20.9Detroit Catholic Central187.0
10Chris Catton16:21.5Grand Blanc186.8
10Justin Zanotti16:22.0Macomb L’Anse Creuse North186.7
10Dan Johnson16:22.3TC West (Traverse City)186.6
10Ryan Gall16:22.4Livonia Churchill186.5
Michael Brueckman16:22.5Warren DeLaSalle186.5
9James Erickson16:22.7Belleville186.4
8Chris Scott16:23.0TC West (Traverse City)186.3
12Aaron Fedewa16:23.4Grand Ledge186.2
12Kevin Boose16:23.9Romeo186.0
10Troy Terry16:24.0Utica Eisenhower186.0
10Justin Dew16:24.5Lake Orion185.8
11Ryan Sucharski16:24.8Macomb Dakota185.7
Erik Travis16:25.3Livonia Stevenson185.6
Christopher Hadding16:25.3White Lake Lakeland185.6
12Eric Ford-Holevinski16:25.5Ann Arbor Pioneer185.5
9Tim Marshall16:26.3Jackson185.2
Daniel DeRusha16:26.5Highland-Milford185.2
12Zachary Wallis16:26.7Warren DeLaSalle185.1
12Joe Hutchinson16:27.1Portage Central185.0
12Nicholas Zerweck16:27.8Grosse Pointe South184.7
12Anthony Pavicic16:28.3Sterling Heights184.6
10Tyson Warner16:28.8Portage Northern184.4
10Todd Foren16:29.2Novi184.3
John Di Giovanni16:29.3Detroit Catholic Central184.2
12Justin Blazek16:29.8Portage Northern184.1
10Justin Hajduk16:30.4Salem183.9
9Chris Welch16:30.6White Lake Lakeland183.8
12Phillip Johnson16:30.6Livonia Churchill183.8
10Andy Pitchford16:30.9Portage Central183.7
10Jim Hagemann16:31.7Detroit U-D Jesuit183.4
Scott Parrott16:31.9Zeeland (split to East/West)183.4
9Cam Ross16:32.7Traverse City Central183.1
10Mick Tiffany16:32.7Traverse City Central183.1
10Jim Kreft16:32.7TC West (Traverse City)183.1
Dan Smith16:32.7Berkley183.1
Robert Trzcinski16:32.7Midland183.1
10Tyler VanAcker16:33.0Highland-Milford183.0
Daniel Hurst16:33.5Highland-Milford182.8
12Andy Hoppe16:33.6Sterling Heights182.8
12John Lucido16:33.7Grosse Pointe North182.8
Thomas Ferri16:34.2Troy Athens182.6
11Robert Sherman16:34.4Grand Ledge182.5
8Tim Kenny16:35.6TC West (Traverse City)182.1
Steve Stewart16:35.7Livonia Franklin182.1
12Jeremiah Webster16:35.9Grand Blanc182.0
10Mitch Erickson16:36.2Novi181.9
9Mark Sitko16:36.4Clarkston181.9
8Kyle Harris16:36.5Highland-Milford181.8
8Tad Hulst16:36.6Zeeland (split to East/West)181.8
Sean O’Halloran16:37.0Livonia Stevenson181.7
11Barry Mahn16:37.1Traverse City Central181.6
Dave De Steiger16:37.3Rochester Adams181.6
12Jeff Collins16:38.1Portage Northern181.3
11Matthew Reed16:38.2Fraser181.3
George Phillips16:38.3Bay City Western181.2
8Neil Atzinger16:38.9Saline181.0
11Joel Conn16:39.1Grand Blanc181.0
Derek Coe16:39.2Clarkston180.9
Dan Evans16:39.5Royal Oak Kimball (closed)180.8
12Sean Pack16:39.7Grand Blanc180.8
Andy Gillett16:39.7Troy180.8
10Daniel Zinser16:39.9Roseville180.7
Christopher Pappas16:40.8Dearborn180.4
12Scott Cole16:40.9Temperance Bedford180.4
Levi Propst16:41.1Holland West Ottawa180.3
9Zach Ryan16:41.8Saline180.1
12Eugene Kreys16:41.8FHN GR_Forest Hills Northern180.1
Jerome Recker16:41.9Port Huron180.0
12Pat Kenny16:43.3Grosse Pointe North179.6
Nathaniel Visger16:43.4Grosse Pointe South179.5
9Christopher Haag16:43.9Warren DeLaSalle179.4
9Jared Elmore16:44.4Clarkston179.2
11David Schwartz16:44.5Romeo179.2
Harnoor Tokhie16:45.1Okemos179.0
Greg Pope16:45.4Pinckney178.9
Chris Moros16:45.5Brother Rice178.8
10James Szopo16:45.5New Baltimore Anchor Bay178.8
9Chad Anastasoff16:45.6Temperance Bedford178.8
Marco Bianchi16:46.2Okemos178.6
10BJ Meyers16:46.7Rockford178.4
10Andrew Rittenhouse16:47.4GR_Union178.2
10Mike Schuchardt16:48.0Detroit U-D Jesuit178.0
10Derek Dell16:48.4Holt177.9
10Chase Howland16:48.5Portage Northern177.8
12Tim Terry16:48.9Utica Eisenhower177.7
8Adam Koepfer16:49.0Temperance Bedford177.7
12Luke Schmerberg16:49.1Saline177.6
9Anthony McManus16:49.1Traverse City Central177.6
9Adam Craig16:49.3White Lake Lakeland177.6
10Joe Anderson16:51.2Ann Arbor Pioneer176.9
10Jarred Spalsbury16:52.3Grand Ledge176.6
8Bruce LaFrance16:54.6Warren Mott175.8
10Dennis Hughes16:54.7Muskegon Reeths-Puffer175.8
12Jason Carr16:55.9Sterling Heights175.4
10Phil DeCoook16:56.6Troy Athens175.1
10Francis Reno16:56.8Temperance Bedford175.1
10Casey Barnes16:56.9Highland-Milford175.0
9Jonathan Szostak16:57.0Grand Ledge175.0
Brandon Keie16:57.4Lake Orion174.9
12Nicholas Galac16:58.2Grosse Pointe South174.6
John Malosh16:58.9Monroe174.4
9Matt Plaska16:59.2Zeeland (split to East/West)174.3
12Logan Braun16:59.4Saline174.2
Morgan Howard16:59.9Okemos174.0
Andrew Harvey17:00.6Ann Arbor Pioneer173.8
Ryan Bartman17:01.0White Lake Lakeland173.7
10Steve Ball17:03.3Temperance Bedford172.9
Nate Penny17:03.4Zeeland (split to East/West)172.9
Matthew Armstrong17:04.3Okemos172.6
8Kyle Mena17:05.8Portage Northern172.1
10Skylar Gauss17:06.2TC West (Traverse City)171.9
Ethan Goodman17:07.7North Farmington171.4
Tim Henderson17:08.0Detroit Catholic Central171.3
12Robert Young17:08.1Ann Arbor Pioneer171.3
John Kaplan17:08.1Adrian171.3
Matthew Vasko17:08.9Dearborn171.0
10Jon Steinhoff17:10.2Grand Blanc170.6
11Andy Thorson17:10.4Grand Ledge170.5
John Avvasati17:11.0Dearborn170.3
12Abraham Kurban17:12.3GR_Union169.9
9Alex Fritz17:12.9Temperance Bedford169.7
Erik Abraham17:13.8Lake Orion169.4
Chris Furlong17:13.9Livonia Stevenson169.4
Mike Bowman17:14.0North Farmington169.3
David Ulch17:14.5Lincoln Park169.2
Gerald Maczuga17:15.8White Lake Lakeland168.7
Mark Chase17:16.3Dearborn168.6
9Tim Copacia17:16.7Utica Eisenhower168.4
9Andrew Visger17:17.3Grosse Pointe South168.2
10Robert Hanrahan17:17.4Grosse Pointe South168.2
10Nathan Chouinard17:17.6Traverse City Central168.1
Charles Groover17:17.7Dearborn168.1
9Alex Wood17:18.2TC West (Traverse City)167.9
Eric Sweeney17:18.9Clarkston167.7
9Levi Yoder17:20.1GR_Union167.3
8David Hariston17:20.9Grand Ledge167.0
Nicholas Piotrowski17:21.2Ann Arbor Pioneer166.9
Joel Andrews17:21.4Lake Orion166.9
Marcus Tranberg17:21.5Okemos166.8
Rory Beyer17:21.6Troy166.8
10Chris Johnson17:22.5Lake Orion166.5
Scott McGregor17:22.9Clarkston166.4
Steven Parisi17:23.5Dearborn166.2
Meshawi Tewoldemedhin17:24.1GR_Union166.0
9Matt Gillespie17:24.4Livonia Stevenson165.9
9Alex Grobbel17:25.9Utica Eisenhower165.4
Mike Carroll17:27.8Troy164.7
Gregory Sean17:28.7Brother Rice164.4
Robert Bossler17:30.0Grosse Pointe South164.0
9Nikhil Kawlra17:31.3Troy163.6
10Adam Hostetler17:31.5Grand Blanc163.5
Michael Wilder17:31.8Clarkston163.4
10Dave Mazur17:32.0Detroit U-D Jesuit163.3
10Alex White17:33.3Brother Rice162.9
Jeffrey Branta17:33.9Okemos162.7
12Ian Kramer17:37.8TC West (Traverse City)161.4
12Matthew Radgens17:40.7Warren DeLaSalle160.4
Matt Gorski17:44.1Brother Rice159.3
9Chris Lieblang17:47.1Sterling Heights158.3
12Alan Burnie17:47.7Kalamazoo Loy Norrix158.1
Matt Baringer17:51.2Detroit U-D Jesuit156.9
10Chris Jordan17:52.1Detroit U-D Jesuit156.6
Jack Kinsey17:53.3Clarkston156.2
10Chris Kampe17:58.3Utica Eisenhower154.6
Paul Mattis18:00.3Troy153.9
10Aaron Coury18:01.4Detroit U-D Jesuit153.5
9Duane Casbar18:03.0Sterling Heights153.0
David Austin18:03.1Utica Eisenhower153.0
10Adam Mullen18:07.8Utica Eisenhower151.4
9Matt Scapini18:09.3Troy150.9
Shawn Taheri18:09.4Zeeland (split to East/West)150.9
10Kevin Smith18:09.9Warren DeLaSalle150.7
Pat Case18:14.1Livonia Stevenson149.3
Dan Gruska18:15.4Livonia Stevenson148.9
9Soren Berg18:16.0Ann Arbor Pioneer148.7
9Sam Klemet18:16.2Brother Rice148.6
8Dominic Fano18:27.2Sterling Heights144.9
11Paul Gardella18:29.8Warren DeLaSalle144.1
Nate Rusticus18:32.0Zeeland (split to East/West)143.3
Phil Doyle18:38.7Zeeland (split to East/West)141.1
10Tom Appleton18:41.3Warren DeLaSalle140.2
12Joshua Keeler19:12.3GR_Union129.9
9Dan Morris19:21.4GR_Union126.9

Leave a Reply

Fill in your details below or click an icon to log in:

WordPress.com Logo

You are commenting using your WordPress.com account. Log Out /  Change )

Twitter picture

You are commenting using your Twitter account. Log Out /  Change )

Facebook photo

You are commenting using your Facebook account. Log Out /  Change )

Connecting to %s